Tracking 22441 objects as of 1-Mar-2021
HD Live streaming from Space Station
objects crossing your sky now

FREGAT DEB

Track FREGAT DEB now!


NORAD ID: 43395
Int'l Code: 2011-023J
Perigee: 34,533.0 km
Apogee: 35,634.7 km
Inclination: 6.6 °
Period: 1,400.0 minutes
Semi major axis: 41454 km
RCS: Unknown
Launch date: June 7, 2011
Source: Commonwealth of Independent States (former USSR) (CIS)
Launch site: TYURATAM MISSILE AND SPACE COMPLEX (TTMTR)

Note: This is SATELLITE DEBRIS
aabbcc
Your satellite tracking list
Your tracking list is empty




NASA's NSSDC Master Catalog

Two Line Element Set (TLE):
1 43395U 11001J   21057.93667453 -.00000187  00000-0  00000-0 0  9992
2 43395   6.5867  56.9663 0132881 355.9477  18.2419  1.02858309 34138
Source of the keplerian elements: AFSPC